Location: Alto Abejorral
(5.6452°N, 75.8583°W)
Time: 11:07:20
(UTC+00:00)

Daily predictions for brighter satellites

Satellite Brightness Start Highest point End
(mag) Time Altitude Azimuth Time Altitude Azimuth Time Altitude Azimuth
Cosmos 1833 Rocket 3.4 23:31:06 10° SSE 23:35:57 30° ESE 23:40:48 10° NE
Okean 3 Rocket 4.2 23:32:15 10° SSW 23:36:34 63° W 23:40:53 10° N
Cosmos 1943 Rocket 3.6 23:34:21 10° NW 23:39:30 40° WSW 23:44:37 10° S
Abrixas rocket 1.8 23:37:58 10° NW 23:40:49 89° NE 23:43:41 10° SE
CZ-4C R/B 4.2 23:39:47 10° NW 23:47:48 48° WSW 23:55:48 10° S
deb Ariane 3.1 23:41:56 10° W 23:48:00 82° N 23:50:16 10° E
Okean-O 2.6 23:44:02 10° SSE 23:48:26 70° ENE 23:52:49 10° N
GOES 2 Rocket 4.5 23:42:47 10° WNW 23:48:44 63° SSW 23:56:45 10° SE
Helios 1A Rocket 3.7 23:44:48 10° S 23:48:46 55° WSW 23:52:42 10° NNW
Cosmos 1500 Rocket 4.3 23:46:43 10° SSE 23:50:28 29° E 23:54:12 10° NNE
Ariane H10+ 1.3 23:48:01 10° WSW 23:50:57 52° S 23:52:39 15° ESE
GPS 2-15 Rocket1 3.3 23:48:15 10° WSW 23:52:48 55° SSE 23:57:13 11° E
